Dewpoint
51 52 52 52 51 51 50 50 51 51 50 51 51 52 52 52 53 43 27 30 37 52 54 27 22 21 21 20 24 24 15 11 11 14 10 18 15 20 20 18 19 23 25 25 25
51 51 51 52 52 51 51 50 50 50 51 50 51 51 52 51 44 32 42 47 54 56 32 20 15 19 17 18 20 19 15 12 14 15 16 17 18 16 17 16 18 22 24 21 22
53 52 52 51 51 51 51 51 51 50 50 52 52 51 51 50 37 27 53 52 57 54 29 26 16 15 14 16 18 18 16 15 18 18 18 16 15 14 16 14 16 19 22 21 23
53 52 51 51 51 51 51 51 50 50 51 51 51 51 51 46 17 32 60 54 59 39 24 22 16 17 15 14 16 14 16 16 15 16 16 16 14 14 15 17 16 17 21 23 24
53 52 51 50 51 50 50 50 50 50 50 51 51 50 47 30 12 47 60 55 48 34 18 21 21 16 14 14 17 14 12 13 14 12 12 13 13 13 14 16 16 17 22 23 24
54 53 51 52 50 51 50 50 50 50 51 51 51 51 41 11 19 45 37 45 39 30 17 25 20 19 14 12 13 15 13 13 13 14 14 13 12 14 15 17 17 18 20 20 21
54 53 53 52 52 51 51 51 51 51 52 51 50 47 36 11 25 44 40 34 28 20 28 29 23 18 18 16 16 15 14 13 13 13 14 15 13 14 15 17 18 18 19 19 21
54 54 53 53 53 52 52 52 51 52 52 51 52 47 32 23 25 37 39 26 25 31 30 29 23 19 18 18 15 13 14 9 10 12 11 14 8 10 16 17 18 18 18 20 22
53 53 53 52 53 53 52 51 52 52 52 52 49 44 28 44 28 29 39 24 24 26 29 28 24 20 18 15 13 15 6 9 6 10 9 9 6 14 19 21 22 22 21 20 22
52 52 53 52 52 52 52 54 53 53 53 48 45 43 39 23 23 28 37 26 26 24 28 27 23 19 15 11 5 4 7 3 5 12 15 13 11 13 17 18 21 22 22 22 23
51 51 52 52 52 52 50 49 46 46 47 37 34 31 28 33 34 29 34 30 29 27 21 22 17 15 14 14 11 10 10 11 13 15 18 18 17 18 20 19 19 21 22 23 25
50 51 51 52 52 51 47 38 37 38 33 36 37 35 34 34 28 27 31 27 27 23 22 21 16 16 15 16 14 14 14 15 16 18 18 19 18 19 20 21 21 21 23 24 25
50 50 51 51 51 49 40 39 40 40 33 30 33 33 33 34 30 29 28 26 24 23 21 19 15 17 16 17 17 16 15 16 17 18 18 20 19 19 18 20 22 22 23 24 25
49 50 50 50 47 39 36 40 41 41 29 28 30 32 33 31 30 30 27 25 20 19 20 18 17 16 16 16 15 15 14 16 18 18 14 17 14 20 19 19 22 24 23 24 25
49 50 50 48 46 37 39 39 40 42 19 30 30 35 32 26 28 28 27 22 21 18 19 15 17 17 17 15 15 16 15 17 18 19 20 19 17 19 21 20 22 24 25 27 32
50 50 49 47 46 39 39 39 43 30 20 25 27 27 26 28 24 29 29 24 23 20 21 19 20 19 19 18 18 19 19 21 22 20 18 19 18 18 19 22 23 24 25 30 34
50 49 47 42 34 35 37 40 31 24 28 25 24 22 23 23 24 24 27 27 24 22 21 21 20 20 21 20 21 21 23 18 17 16 17 21 19 21 25 24 25 25 26 34 33
48 48 47 43 41 41 41 36 26 27 26 29 29 25 23 25 25 27 23 22 25 25 23 20 18 19 20 21 20 21 23 19 19 19 20 23 21 22 25 25 28 31 33 32 33
48 45 43 42 45 46 39 28 27 29 30 29 30 32 29 28 27 28 28 26 23 27 25 25 24 23 23 24 23 25 24 25 25 25 21 22 24 25 26 27 30 31 32 33 35
43 44 40 43 46 44 30 30 30 30 31 31 30 31 30 31 31 31 32 32 32 32 34 33 32 31 30 27 26 26 26 27 26 27 25 21 22 22 27 28 31 32 31 33 35
43 41 40 43 46 37 32 30 30 32 32 30 31 32 32 32 33 32 34 32 33 31 33 32 32 30 28 27 26 26 28 30 32 31 29 25 23 31 30 32 33 32 32 34 34
43 37 41 44 37 37 33 32 35 32 33 33 34 34 34 33 33 32 33 32 33 33 32 33 36 31 29 30 29 29 29 29 34 32 33 34 30 31 34 33 33 32 32 32 34
38 38 42 44 36 35 36 32 33 33 33 32 32 33 35 33 31 33 32 31 31 32 36 38 37 30 27 29 31 30 30 31 32 37 35 31 27 34 33 33 32 29 31 34 36
37 34 36 39 39 38 36 35 34 35 34 35 34 35 34 34 35 37 34 33 33 33 39 40 36 33 28 28 31 32 30 33 36 34 31 31 30 30 31 28 27 32 36 37 37
38 37 38 33 34 35 36 35 32 32 34 34 33 33 33 32 30 30 31 31 32 34 35 40 35 33 30 30 28 28 30 30 29 35 34 29 28 29 25 26 32 36 37 36 35
36 35 37 36 35 33 34 34 31 32 32 31 32 31 36 35 33 32 31 32 34 33 34 40 34 31 27 24 23 22 22 22 21 21 24 26 23 23 30 33 35 35 34 33 33
41 42 38 35 33 32 32 32 32 32 32 33 33 33 32 32 33 34 34 35 34 34 36 38 31 31 24 21 21 20 20 22 23 22 21 20 23 29 32 34 35 34 33 33 34
Lifted_Index
13 13 13 13 13 13 13 13 13 13 13 13 12 12 12 12 11 11 11 12 12 12 12 12 12 12 11 10 10 9 8 7 7 7 8 9 9 9 10 9 9 8 8 8 8
12 12 13 13 13 13 13 13 13 13 13 13 12 12 12 12 11 10 11 11 10 10 11 11 11 11 11 10 10 9 8 7 7 8 9 9 10 10 10 9 9 8 8 8 8
12 12 12 12 12 13 13 13 13 13 13 13 12 12 12 11 9 8 8 9 8 9 10 10 10 10 10 9 9 8 7 7 8 8 9 9 9 10 9 9 9 8 8 8 8
12 12 12 12 13 13 14 14 14 14 13 13 13 13 12 10 9 7 6 7 7 8 10 10 10 9 9 8 8 8 7 8 8 9 9 9 9 9 9 9 8 8 8 8 7
12 12 13 13 13 13 14 14 14 13 13 13 13 13 11 10 9 7 6 7 7 9 10 10 9 9 8 8 8 8 8 8 9 9 9 9 9 9 9 9 9 8 8 7 7
12 12 13 13 13 13 13 13 13 13 13 13 13 13 11 10 10 8 7 8 8 10 10 9 9 9 9 9 9 9 8 9 9 9 9 9 8 9 9 9 9 8 8 8 8
11 11 12 12 13 13 13 13 12 12 12 13 12 12 11 11 11 9 8 9 10 10 10 9 9 10 9 9 9 9 8 8 8 8 8 8 8 8 9 9 9 8 8 8 8
11 11 11 12 12 12 12 12 11 11 11 12 11 10 10 11 11 9 9 10 10 10 9 9 9 9 9 9 9 8 7 6 7 8 8 7 6 7 8 8 8 8 8 8 8
12 12 12 11 12 12 12 11 11 10 10 10 10 9 9 10 11 9 8 9 10 9 9 9 9 9 8 8 7 6 6 5 6 7 8 7 6 6 7 7 7 7 7 7 7
13 13 12 12 11 11 12 11 9 9 9 9 9 8 8 9 10 9 9 9 9 9 8 8 8 7 7 7 6 6 5 5 6 7 7 7 6 7 7 7 7 7 7 6 6
13 13 12 12 11 11 11 10 8 8 8 8 8 8 8 8 9 9 9 9 8 8 8 8 7 7 7 7 7 6 6 5 6 7 7 7 7 7 7 7 7 7 6 6 6
12 12 11 11 10 10 10 9 7 7 7 7 7 7 8 8 8 8 8 8 8 8 8 8 7 7 7 8 8 7 6 6 6 7 7 7 7 7 7 7 7 7 6 6 6
11 11 11 10 10 10 10 8 7 7 7 7 7 7 7 7 7 7 8 8 8 7 7 7 7 8 8 8 7 7 6 6 7 7 7 7 6 6 7 7 7 6 6 6 6
11 11 10 9 9 9 9 8 7 7 6 5 6 6 7 6 6 6 7 7 7 7 7 7 7 7 7 7 7 6 7 7 7 6 6 5 5 5 6 6 6 6 6 6 6
11 11 10 9 9 9 8 8 7 6 4 4 6 6 6 6 6 6 6 6 7 7 7 6 6 7 7 7 6 6 6 6 6 5 5 5 5 5 5 5 5 5 5 5 5
10 10 10 9 9 9 8 7 6 4 4 5 6 6 6 5 5 5 5 5 5 5 5 5 5 5 5 5 6 5 5 5 4 3 3 3 4 4 4 4 4 4 4 5 5
10 10 10 10 10 9 8 6 4 4 4 5 6 6 6 5 5 5 4 4 4 4 4 4 4 4 4 4 4 4 4 3 2 1 1 1 2 3 4 4 5 4 4 5 5
9 9 10 10 9 8 7 5 4 4 5 5 5 5 5 5 5 4 4 3 3 3 3 3 3 3 4 4 3 3 2 2 1 1 0 1 1 2 4 5 5 5 4 4 5
8 8 8 8 8 7 5 5 4 4 5 5 4 4 4 3 3 3 3 3 3 3 3 3 2 3 3 3 3 2 2 1 1 1 1 1 2 2 3 4 5 4 4 4 5
6 6 6 6 6 6 5 5 5 5 5 5 4 4 3 3 3 3 3 3 3 3 3 3 3 3 3 3 3 3 2 2 2 1 1 1 1 1 2 3 3 4 4 5 5
6 5 5 5 5 5 5 5 5 5 5 5 5 4 4 3 3 3 3 3 3 4 4 3 3 3 3 2 2 2 2 2 2 1 1 1 1 1 1 2 2 3 4 4 4
6 5 5 5 4 4 5 5 6 6 6 5 5 4 4 4 4 4 3 4 4 4 4 4 3 3 3 2 2 2 2 2 2 2 2 2 2 1 1 2 2 3 3 4 4
6 6 6 5 4 4 5 5 6 6 6 5 5 5 4 4 4 4 4 4 5 5 4 4 3 3 2 2 2 2 2 2 2 2 2 2 2 1 1 2 3 3 3 3 3
6 6 6 5 5 5 5 5 5 6 6 6 5 5 5 5 5 5 4 5 5 5 5 4 3 3 2 2 2 3 3 2 2 3 3 2 2 1 2 2 3 2 2 2 3
6 6 6 6 6 6 6 6 6 6 6 6 6 5 5 5 5 5 5 5 5 4 4 4 3 3 3 3 3 3 3 3 3 3 3 3 2 2 2 2 2 2 1 2 2
7 7 7 7 6 6 6 6 6 6 6 6 6 6 6 6 5 5 5 5 4 4 3 3 3 3 3 3 4 4 4 4 4 4 3 3 3 2 2 1 1 1 1 2 2
7 7 7 7 7 6 6 6 6 6 7 6 6 6 6 6 6 5 5 4 4 4 3 2 2 3 3 3 4 4 4 4 3 3 3 3 2 2 1 1 0 1 1 2 2